2024-247S (62393 NORAD) Tracking and Keplerian Element Data

This shows tracking and keplerian element data for the satellite.

Feedback or suggestion? Click here.




ElementValue
Catalog62393
Name2024-247S
Epoch Orbit681
Epoch Day34.32234393
Epoch Year2025
RAAN124.6115
Inclination44.9927
Eccentricity0.0005206
Argument of Perigee346.3477
Mean Anonmoly13.7262
Mean Motion15.20578497
Decay Rate0.00033207
L11 62393U 24247S 25034.32234393 .00033207 00000+0 14945-2 0 9994
L22 62393 44.9927 124.6115 0005206 346.3477 13.7262 15.20578497 6811



Live tracking and technical data element details for 2024-247S (NORAD 62393). 2024-247S can be tracked NOW for your location showing map with azimuth and elevation plus other details from your city location.







IsCatalogInMostPopularTable: catalog: 62393, numindb: 13
Update: records affected: 1



GetName: 62393 2024-247S

Hit Count: updated at: Mon, 19 May 2025 03:12:56 GMT